sampling_time,wmo_synop_id,msc_id,stn_nam,stn_elev,lat,long,stn_typ,date_tm,rpt_typ,result_time,crnt_buoy_lat,crnt_buoy_lat_qa_summary,crnt_buoy_long,crnt_buoy_long_qa_summary,avg_air_temp_pst10mts,avg_air_temp_pst10mts_qa_summary,avg_sea_sfc_temp_pst10mts,avg_sea_sfc_temp_pst10mts_qa_summary,avg_batry_volt_pst10mts,avg_batry_volt_pst10mts_qa_summary,avg_solr_panl_crnt_pst10mts,avg_solr_panl_crnt_pst10mts_qa_summary,avg_wtr_lvl_snsr_volt_pst10mts,avg_wtr_lvl_snsr_volt_pst10mts_qa_summary,avg_wave_hgt_pst20mts,avg_wave_hgt_pst20mts_qa_summary,pk_wave_hgt_pst20mts,pk_wave_hgt_pst20mts_qa_summary,sig_wave_pd_pst20mts,sig_wave_pd_pst20mts_qa_summary,sig_wave_hgt_pst20mts,sig_wave_hgt_pst20mts_qa_summary,avg_max_wave_hgt_pst20mts,avg_max_wave_hgt_pst20mts_qa_summary,avg_max_wave_pd_pst20mts,avg_max_wave_pd_pst20mts_qa_summary,avg_wave_pd_pst20mts,avg_wave_pd_pst20mts_qa_summary,pk_wave_pd_pst20mts,pk_wave_pd_pst20mts_qa_summary,avg_stn_pres_pst10mts,avg_stn_pres_pst10mts_qa_summary,avg_wnd_spd_pst10mts,avg_wnd_spd_pst10mts_qa_summary,avg_wnd_dir_pst10mts,avg_wnd_dir_pst10mts_qa_summary,max_avg_wnd_spd_pst10mts,max_avg_wnd_spd_pst10mts_qa_summary,wnd_snsr_vert_disp,wnd_snsr_vert_disp_qa_summary,pres_tend_char_pst3hrs,pres_tend_char_pst3hrs_data_flag,pres_tend_amt_pst3hrs,pres_tend_amt_pst3hrs_data_flag,avg_mslp_pst10mts,avg_mslp_pst10mts_data_flag,avg_stn_pres_pst10mts_1,avg_stn_pres_pst10mts_2,avg_wnd_spd_pst10mts_1,avg_wnd_spd_pst10mts_2,avg_wnd_dir_pst10mts_1,avg_wnd_dir_pst10mts_2,max_avg_wnd_spd_pst10mts_1,max_avg_wnd_spd_pst10mts_2,wnd_snsr_vert_disp_1,wnd_snsr_vert_disp_2
2020-10-24T00:00:00Z,44488,9302000,East Chedabucto Bay,0.0,45.445,-60.9538,18,2020-10-24T00:00:00.000Z,108,2020-10-24T00:08:10.870Z,45.44565,100,-60.9551,100,9.6,100,12.3,100,12.8,100,0.0,100,3.6,100,0.8,100,2.0,100,6.3,100,1.2,100,1.5,100,7.9,100,4.7,100,11.8,100,1026.2,100,30.6,100,72,100,37.4,100,5.0,100,8,1,-1.3,1,1026.2,1,1026.2,1026.2,30.6,29.5,72,73,37.4,36.0,5.0,4.0
2020-10-24T00:10:00Z,44488,9302000,East Chedabucto Bay,0.0,45.445,-60.9538,18,2020-10-24T00:10:00.000Z,110,2020-10-24T00:18:16.555Z,,-1,,-1,10.2,100,13.0,100,12.8,100,0.0,100,3.6,100,,-1,,-1,,-1,,-1,,-1,,-1,,-1,,-1,1026.0,100,32.4,100,77,100,37.8,100,5.0,100,8,1,-1.6,1,1026.0,1,1026.0,1026.0,32.4,31.3,77,78,37.8,36.7,5.0,4.0
2020-10-24T00:20:00Z,44488,9302000,East Chedabucto Bay,0.0,45.445,-60.9538,18,2020-10-24T00:20:00.000Z,110,2020-10-24T00:28:14.164Z,45.44567,100,-60.955119999999994,100,9.6,100,12.3,100,12.8,100,0.0,100,3.6,100,,-1,,-1,,-1,,-1,,-1,,-1,,-1,,-1,1026.0,100,30.6,100,77,100,36.0,100,5.0,100,8,1,-1.4,1,1026.0,1,1026.0,1026.0,30.6,29.2,77,78,36.0,34.6,5.0,4.0
2020-10-24T00:30:00Z,44488,9302000,East Chedabucto Bay,0.0,45.445,-60.9538,18,2020-10-24T00:30:00.000Z,110,2020-10-24T00:38:20.877Z,45.445679999999996,100,-60.955130000000004,100,9.6,100,12.3,100,12.8,100,0.0,100,3.6,100,,-1,,-1,,-1,,-1,,-1,,-1,,-1,,-1,1025.9,100,29.5,100,77,100,35.3,100,5.0,100,7,1,-1.5,1,1025.9,1,1025.9,1025.9,29.5,28.4,77,78,35.3,33.8,5.0,4.0
2020-10-24T00:40:00Z,44488,9302000,East Chedabucto Bay,0.0,45.445,-60.9538,18,2020-10-24T00:40:00.000Z,110,2020-10-24T00:48:16.916Z,45.445679999999996,100,-60.955169999999995,100,9.6,100,12.3,100,12.7,100,0.0,100,3.6,100,,-1,,-1,,-1,,-1,,-1,,-1,,-1,,-1,1025.8,100,29.5,100,75,100,35.3,100,5.0,100,8,1,-1.4,1,1025.8,1,1025.8,1025.8,29.5,28.4,75,76,35.3,34.6,5.0,4.0
2020-10-24T00:50:00Z,44488,9302000,East Chedabucto Bay,0.0,45.445,-60.9538,18,2020-10-24T00:50:00.000Z,110,2020-10-24T00:58:20.176Z,45.44568,100,-60.95512,100,9.6,100,12.3,100,12.7,100,0.0,100,3.6,100,,-1,,-1,,-1,,-1,,-1,,-1,,-1,,-1,1025.9,100,28.4,100,77,100,33.8,100,5.0,100,8,1,-1.2,1,1025.9,1,1025.9,1025.8,28.4,27.4,77,78,33.8,32.8,5.0,4.0
2020-10-24T01:00:00Z,44488,9302000,East Chedabucto Bay,0.0,45.445,-60.9538,18,2020-10-24T01:00:00.000Z,108,2020-10-24T01:08:31.106Z,45.445679999999996,100,-60.95515,100,9.6,100,12.3,100,12.7,100,0.0,100,3.6,100,0.8,100,2.1,100,6.2,100,1.2,100,1.5,100,7.4,100,4.8,100,11.1,100,1025.7,100,28.4,100,78,100,33.8,100,5.0,100,8,1,-1.3,1,1025.7,1,1025.7,1025.7,28.4,27.4,78,79,33.8,32.8,5.0,4.0
2020-10-24T01:10:00Z,44488,9302000,East Chedabucto Bay,0.0,45.445,-60.9538,18,2020-10-24T01:10:00.000Z,110,2020-10-24T01:21:36.799Z,45.44568,100,-60.95517,100,9.7,100,12.3,100,12.8,100,0.0,100,3.6,100,,-1,,-1,,-1,,-1,,-1,,-1,,-1,,-1,1025.5,100,29.5,100,75,100,34.9,100,5.0,100,8,1,-1.5,1,1025.5,1,1025.5,1025.5,29.5,28.4,75,76,34.9,33.1,5.0,4.0
2020-10-24T01:20:00Z,44488,9302000,East Chedabucto Bay,0.0,45.445,-60.9538,18,2020-10-24T01:20:00.000Z,110,2020-10-24T01:28:30.063Z,45.44567,100,-60.95518000000001,100,9.7,100,12.3,100,12.7,100,0.0,100,3.6,100,,-1,,-1,,-1,,-1,,-1,,-1,,-1,,-1,1025.5,100,28.4,100,71,100,34.6,100,5.0,100,8,1,-1.5,1,1025.5,1,1025.5,1025.4,28.4,27.4,71,72,34.6,33.5,5.0,4.0
2020-10-24T01:30:00Z,44488,9302000,East Chedabucto Bay,0.0,45.445,-60.9538,18,2020-10-24T01:30:00.000Z,110,2020-10-24T01:37:29.170Z,45.4457,100,-60.95515,100,9.7,100,12.3,100,12.7,100,0.0,100,3.6,100,,-1,,-1,,-1,,-1,,-1,,-1,,-1,,-1,1025.4,100,28.1,100,71,100,33.5,100,5.0,100,8,1,-1.5,1,1025.4,1,1025.4,1025.4,28.1,27.0,71,72,33.5,32.4,5.0,4.0
2020-10-24T01:40:00Z,44488,9302000,East Chedabucto Bay,0.0,45.445,-60.9538,18,2020-10-24T01:40:00.000Z,110,2020-10-24T01:48:34.455Z,45.445679999999996,100,-60.955169999999995,100,9.8,100,12.3,100,12.7,100,0.0,100,3.6,100,,-1,,-1,,-1,,-1,,-1,,-1,,-1,,-1,1025.3,100,28.1,100,72,100,33.8,100,5.0,100,7,1,-1.5,1,1025.3,1,1025.3,1025.3,28.1,27.0,72,73,33.8,32.8,5.0,4.0
2020-10-24T01:50:00Z,44488,9302000,East Chedabucto Bay,0.0,45.445,-60.9538,18,2020-10-24T01:50:00.000Z,110,2020-10-24T01:57:44.064Z,45.44568,100,-60.95518000000001,100,9.8,100,12.3,100,12.7,100,0.0,100,3.6,100,,-1,,-1,,-1,,-1,,-1,,-1,,-1,,-1,1025.2,100,29.5,100,78,100,34.2,100,5.0,100,8,1,-1.7,1,1025.2,1,1025.2,1025.2,29.5,28.4,78,79,34.2,33.8,5.0,4.0
2020-10-24T02:00:00Z,44488,9302000,East Chedabucto Bay,0.0,45.445,-60.9538,18,2020-10-24T02:00:00.000Z,108,2020-10-24T02:07:39.907Z,45.4457,100,-60.95522,100,9.9,100,12.3,100,12.7,100,0.0,100,3.6,100,0.8,100,2.2,100,5.7,100,1.2,100,1.5,100,6.2,100,4.5,100,10.5,100,1024.9,100,29.9,100,79,100,36.4,100,5.0,100,8,1,-2.0,1,1024.9,1,1024.9,1024.9,29.9,28.8,79,80,36.4,34.6,5.0,4.0
2020-10-24T02:10:00Z,44488,9302000,East Chedabucto Bay,0.0,45.445,-60.9538,18,2020-10-24T02:10:00.000Z,110,2020-10-24T02:20:36.422Z,45.44568,100,-60.95522,100,9.8,100,12.3,100,12.7,100,0.0,100,3.6,100,,-1,,-1,,-1,,-1,,-1,,-1,,-1,,-1,1024.7,100,30.2,100,75,100,36.0,100,5.0,100,8,1,-2.0,1,1024.7,1,1024.7,1024.6,30.2,29.2,75,76,36.0,36.0,5.0,4.0
2020-10-24T02:20:00Z,44488,9302000,East Chedabucto Bay,0.0,45.445,-60.9538,18,2020-10-24T02:20:00.000Z,110,2020-10-24T02:27:47.459Z,45.445679999999996,100,-60.9552,100,9.9,100,12.3,100,12.7,100,0.0,100,3.6,100,,-1,,-1,,-1,,-1,,-1,,-1,,-1,,-1,1024.6,100,31.3,100,80,100,36.7,100,5.0,100,8,1,-2.1,1,1024.6,1,1024.6,1024.6,31.3,30.2,80,81,36.7,35.6,5.0,4.0
2020-10-24T02:30:00Z,44488,9302000,East Chedabucto Bay,0.0,45.445,-60.9538,18,2020-10-24T02:30:00.000Z,110,2020-10-24T02:37:50.732Z,45.44567,100,-60.95515,100,9.9,100,12.3,100,12.7,100,0.0,100,3.6,100,,-1,,-1,,-1,,-1,,-1,,-1,,-1,,-1,1024.5,100,30.6,100,81,100,36.7,100,5.0,100,8,1,-1.9,1,1024.5,1,1024.5,1024.5,30.6,29.5,81,82,36.7,36.0,5.0,4.0
2020-10-24T02:40:00Z,44488,9302000,East Chedabucto Bay,0.0,45.445,-60.9538,18,2020-10-24T02:40:00.000Z,110,2020-10-24T02:47:48.847Z,45.44565,100,-60.955169999999995,100,10.0,100,12.3,100,12.7,100,0.0,100,3.6,100,,-1,,-1,,-1,,-1,,-1,,-1,,-1,,-1,1024.4,100,30.2,100,75,100,36.0,100,5.0,100,8,1,-2.0,1,1024.4,1,1024.4,1024.4,30.2,29.2,75,76,36.0,35.3,5.0,4.0
2020-10-24T02:50:00Z,44488,9302000,East Chedabucto Bay,0.0,45.445,-60.9538,18,2020-10-24T02:50:00.000Z,110,2020-10-24T02:57:52.099Z,45.44568,100,-60.9552,100,10.0,100,12.3,100,12.7,100,0.0,100,3.6,100,,-1,,-1,,-1,,-1,,-1,,-1,,-1,,-1,1024.3,100,29.9,100,80,100,35.6,100,5.0,100,8,1,-2.1,1,1024.3,1,1024.3,1024.3,29.9,28.8,80,81,35.6,33.8,5.0,4.0
2020-10-24T03:00:00Z,44488,9302000,East Chedabucto Bay,0.0,45.445,-60.9538,18,2020-10-24T03:00:00.000Z,108,2020-10-24T03:07:56.526Z,45.445679999999996,100,-60.95518000000001,100,10.0,100,12.3,100,12.7,100,0.0,100,3.6,100,0.8,100,2.0,100,6.4,100,1.2,100,1.5,100,7.2,100,4.6,100,11.1,100,1024.1,100,30.2,100,81,100,36.4,100,5.0,100,8,1,-2.1,1,1024.1,1,1024.1,1024.1,30.2,29.2,81,82,36.4,35.3,5.0,4.0
2020-10-24T03:10:00Z,44488,9302000,East Chedabucto Bay,0.0,45.445,-60.9538,18,2020-10-24T03:10:00.000Z,110,2020-10-24T03:21:06.568Z,45.4457,100,-60.95518000000001,100,10.1,100,12.3,100,12.7,100,0.0,100,3.6,100,,-1,,-1,,-1,,-1,,-1,,-1,,-1,,-1,1024.0,100,28.8,100,82,100,35.3,100,5.0,100,8,1,-2.0,1,1024.0,1,1024.0,1024.0,28.8,27.7,82,83,35.3,33.8,5.0,4.0
2020-10-24T03:20:00Z,44488,9302000,East Chedabucto Bay,0.0,45.445,-60.9538,18,2020-10-24T03:20:00.000Z,110,2020-10-24T03:28:08.172Z,45.4457,100,-60.95518000000001,100,10.2,100,12.3,100,12.7,100,0.0,100,3.6,100,,-1,,-1,,-1,,-1,,-1,,-1,,-1,,-1,1023.9,100,28.4,100,79,100,33.5,100,5.0,100,8,1,-2.1,1,1023.9,1,1023.9,1023.9,28.4,27.4,79,80,33.5,32.8,5.0,4.0
2020-10-24T03:30:00Z,44488,9302000,East Chedabucto Bay,0.0,45.445,-60.9538,18,2020-10-24T03:30:00.000Z,110,2020-10-24T03:38:10.849Z,45.44572,100,-60.95517,100,10.3,100,12.3,100,12.7,100,0.0,100,3.6,100,,-1,,-1,,-1,,-1,,-1,,-1,,-1,,-1,1023.7,100,28.8,100,77,100,35.6,100,5.0,100,8,1,-2.2,1,1023.7,1,1023.7,1023.7,28.8,27.7,77,78,35.6,34.6,5.0,4.0
2020-10-24T03:40:00Z,44488,9302000,East Chedabucto Bay,0.0,45.445,-60.9538,18,2020-10-24T03:40:00.000Z,110,2020-10-24T03:48:18.281Z,45.4457,100,-60.95518000000001,100,10.3,100,12.3,100,12.7,100,0.0,100,3.6,100,,-1,,-1,,-1,,-1,,-1,,-1,,-1,,-1,1023.5,100,28.1,100,79,100,34.2,100,5.0,100,8,1,-2.3,1,1023.5,1,1023.5,1023.5,28.1,27.0,79,80,34.2,31.7,5.0,4.0
2020-10-24T03:50:00Z,44488,9302000,East Chedabucto Bay,0.0,45.445,-60.9538,18,2020-10-24T03:50:00.000Z,110,2020-10-24T03:58:11.150Z,45.4457,100,-60.95518000000001,100,10.4,100,12.3,100,12.7,100,0.0,100,3.6,100,,-1,,-1,,-1,,-1,,-1,,-1,,-1,,-1,1023.4,100,27.7,100,82,100,35.3,100,5.0,100,8,1,-2.4,1,1023.4,1,1023.4,1023.4,27.7,26.6,82,83,35.3,34.6,5.0,4.0
2020-10-24T04:00:00Z,44488,9302000,East Chedabucto Bay,0.0,45.445,-60.9538,18,2020-10-24T04:00:00.000Z,108,2020-10-24T04:08:22.418Z,45.4457,100,-60.955169999999995,100,10.4,100,12.3,100,12.7,100,0.0,100,3.6,100,0.8,100,2.2,100,7.1,100,1.3,100,1.5,100,8.3,100,4.8,100,11.8,100,1023.3,100,26.3,100,83,100,31.0,100,5.0,100,7,1,-2.5,1,1023.3,1,1023.3,1023.3,26.3,25.2,83,84,31.0,30.6,5.0,4.0
2020-10-24T04:10:00Z,44488,9302000,East Chedabucto Bay,0.0,45.445,-60.9538,18,2020-10-24T04:10:00.000Z,110,2020-10-24T04:21:24.766Z,45.4457,100,-60.95513,100,10.5,100,12.3,100,12.7,100,0.0,100,3.6,100,,-1,,-1,,-1,,-1,,-1,,-1,,-1,,-1,1023.1,100,26.3,100,82,100,31.0,100,5.0,100,8,1,-2.5,1,1023.1,1,1023.1,1023.1,26.3,24.8,82,83,31.0,30.6,5.0,4.0
2020-10-24T04:20:00Z,44488,9302000,East Chedabucto Bay,0.0,45.445,-60.9538,18,2020-10-24T04:20:00.000Z,110,2020-10-24T04:28:23.879Z,45.4457,100,-60.955130000000004,100,10.6,100,12.3,100,12.7,100,0.0,100,3.6,100,,-1,,-1,,-1,,-1,,-1,,-1,,-1,,-1,1022.9,100,28.1,100,79,100,34.2,100,5.0,100,8,1,-2.6,1,1022.9,1,1022.9,1022.9,28.1,27.0,79,80,34.2,33.5,5.0,4.0
2020-10-24T04:30:00Z,44488,9302000,East Chedabucto Bay,0.0,45.445,-60.9538,18,2020-10-24T04:30:00.000Z,110,2020-10-24T04:38:29.573Z,45.44572,100,-60.95512,100,10.7,100,12.3,100,12.7,100,0.0,100,3.6,100,,-1,,-1,,-1,,-1,,-1,,-1,,-1,,-1,1022.8,100,27.4,100,84,100,32.8,100,5.0,100,7,1,-2.6,1,1022.8,1,1022.8,1022.8,27.4,26.3,84,85,32.8,32.8,5.0,4.0
2020-10-24T04:40:00Z,44488,9302000,East Chedabucto Bay,0.0,45.445,-60.9538,18,2020-10-24T04:40:00.000Z,110,2020-10-24T04:48:29.794Z,45.44572,100,-60.95515,100,10.7,100,12.3,100,12.7,100,0.0,100,3.6,100,,-1,,-1,,-1,,-1,,-1,,-1,,-1,,-1,1022.7,100,27.4,100,83,100,32.0,100,5.0,100,6,1,-2.7,1,1022.7,1,1022.7,1022.7,27.4,26.3,83,84,32.0,32.0,5.0,4.0
2020-10-24T04:50:00Z,44488,9302000,East Chedabucto Bay,0.0,45.445,-60.9538,18,2020-10-24T04:50:00.000Z,110,2020-10-24T04:58:30.625Z,45.4457,100,-60.95517,100,10.8,100,12.2,100,12.7,100,0.0,100,3.6,100,,-1,,-1,,-1,,-1,,-1,,-1,,-1,,-1,1022.5,100,27.0,100,84,100,34.2,100,5.0,100,7,1,-2.7,1,1022.5,1,1022.5,1022.5,27.0,25.9,84,85,34.2,32.8,5.0,4.0
2020-10-24T05:00:00Z,44488,9302000,East Chedabucto Bay,0.0,45.445,-60.9538,18,2020-10-24T05:00:00.000Z,108,2020-10-24T05:08:38.526Z,45.44573,100,-60.95515,100,10.8,100,12.2,100,12.7,100,0.0,100,3.6,100,0.8,100,1.9,100,6.7,100,1.2,100,1.5,100,7.6,100,4.8,100,10.5,100,1022.4,100,28.1,100,83,100,33.8,100,5.0,100,8,1,-2.4,1,1022.4,1,1022.4,1022.4,28.1,26.6,83,84,33.8,33.8,5.0,4.0
2020-10-24T05:10:00Z,44488,9302000,East Chedabucto Bay,0.0,45.445,-60.9538,18,2020-10-24T05:10:00.000Z,110,2020-10-24T05:21:36.661Z,45.44573,100,-60.95515,100,10.8,100,12.2,100,12.7,100,0.0,100,3.6,100,,-1,,-1,,-1,,-1,,-1,,-1,,-1,,-1,1022.3,100,28.4,100,83,100,34.6,100,5.0,100,8,1,-2.4,1,1022.3,1,1022.3,1022.3,28.4,27.0,83,84,34.6,33.5,5.0,4.0
2020-10-24T05:20:00Z,44488,9302000,East Chedabucto Bay,0.0,45.445,-60.9538,18,2020-10-24T05:20:00.000Z,110,2020-10-24T05:28:34.934Z,45.44572,100,-60.955169999999995,100,10.8,100,12.2,100,12.7,100,0.0,100,3.6,100,,-1,,-1,,-1,,-1,,-1,,-1,,-1,,-1,1022.1,100,29.5,100,85,100,36.4,100,5.0,100,8,1,-2.4,1,1022.1,1,1022.1,1022.1,29.5,28.1,85,86,36.4,35.3,5.0,4.0
2020-10-24T05:30:00Z,44488,9302000,East Chedabucto Bay,0.0,45.445,-60.9538,18,2020-10-24T05:30:00.000Z,110,2020-10-24T05:37:47.370Z,45.44567,100,-60.9551,100,10.8,100,12.3,100,12.7,100,0.0,100,3.6,100,,-1,,-1,,-1,,-1,,-1,,-1,,-1,,-1,1022.1,100,29.9,100,86,100,35.3,100,5.0,100,6,1,-2.4,1,1022.1,1,1022.1,1022.1,29.9,28.8,86,87,35.3,34.2,5.0,4.0
2020-10-24T05:40:00Z,44488,9302000,East Chedabucto Bay,0.0,45.445,-60.9538,18,2020-10-24T05:40:00.000Z,110,2020-10-24T05:47:43.371Z,45.44573,100,-60.955169999999995,100,10.9,100,12.3,100,12.7,100,0.0,100,3.6,100,,-1,,-1,,-1,,-1,,-1,,-1,,-1,,-1,1022.1,100,28.8,100,85,100,36.0,100,5.0,100,6,1,-2.3,1,1022.1,1,1022.1,1022.1,28.8,27.7,85,86,36.0,35.6,5.0,4.0
2020-10-24T05:50:00Z,44488,9302000,East Chedabucto Bay,0.0,45.445,-60.9538,18,2020-10-24T05:50:00.000Z,110,2020-10-24T05:57:49.754Z,45.44573,100,-60.95515,100,10.9,100,12.3,100,12.7,100,0.0,100,3.6,100,,-1,,-1,,-1,,-1,,-1,,-1,,-1,,-1,1022.0,100,29.9,100,87,100,36.0,100,5.0,100,6,1,-2.3,1,1022.0,1,1022.0,1022.0,29.9,28.4,87,88,36.0,33.8,5.0,4.0
2020-10-24T06:00:00Z,44488,9302000,East Chedabucto Bay,0.0,45.445,-60.9538,18,2020-10-24T06:00:00.000Z,108,2020-10-24T06:07:54.930Z,45.44572,100,-60.95515,100,11.0,100,12.3,100,12.7,100,0.0,100,3.6,100,0.8,100,1.9,100,6.2,100,1.3,100,1.5,100,5.8,100,4.7,100,11.8,100,1022.0,100,30.2,100,86,100,38.2,100,5.0,100,6,1,-2.1,1,1022.0,1,1022.0,1022.0,30.2,28.8,86,87,38.2,37.1,5.0,4.0
2020-10-24T06:10:00Z,44488,9302000,East Chedabucto Bay,0.0,45.445,-60.9538,18,2020-10-24T06:10:00.000Z,110,2020-10-24T06:20:51.849Z,45.44572,100,-60.95513,100,11.0,100,12.3,100,12.7,100,0.0,100,3.6,100,,-1,,-1,,-1,,-1,,-1,,-1,,-1,,-1,1021.9,100,29.9,100,91,100,38.9,100,5.0,100,6,1,-2.1,1,1021.9,1,1021.9,1021.9,29.9,28.4,91,92,38.9,35.3,5.0,4.0
2020-10-24T06:20:00Z,44488,9302000,East Chedabucto Bay,0.0,45.445,-60.9538,18,2020-10-24T06:20:00.000Z,110,2020-10-24T06:27:58.855Z,45.44573,100,-60.95513,100,11.0,100,12.2,100,12.7,100,0.0,100,3.6,100,,-1,,-1,,-1,,-1,,-1,,-1,,-1,,-1,1021.8,100,32.0,100,91,100,38.2,100,5.0,100,6,1,-2.2,1,1021.8,1,1021.8,1021.8,32.0,30.2,91,92,38.2,37.4,5.0,4.0
2020-10-24T06:30:00Z,44488,9302000,East Chedabucto Bay,0.0,45.445,-60.9538,18,2020-10-24T06:30:00.000Z,110,2020-10-24T06:37:57.586Z,45.44572,100,-60.95515,100,11.0,100,12.3,100,12.7,100,0.0,100,3.6,100,,-1,,-1,,-1,,-1,,-1,,-1,,-1,,-1,1021.5,100,32.4,100,90,100,39.6,100,5.0,100,6,1,-2.2,1,1021.5,1,1021.5,1021.5,32.4,30.6,90,91,39.6,38.5,5.0,4.0
2020-10-24T06:40:00Z,44488,9302000,East Chedabucto Bay,0.0,45.445,-60.9538,18,2020-10-24T06:40:00.000Z,110,2020-10-24T06:47:54.599Z,45.44573,100,-60.95513,100,11.0,100,12.3,100,12.6,100,0.0,100,3.6,100,,-1,,-1,,-1,,-1,,-1,,-1,,-1,,-1,1021.3,100,31.3,100,89,100,36.7,100,5.0,100,7,1,-2.2,1,1021.3,1,1021.3,1021.3,31.3,29.9,89,90,36.7,35.6,5.0,4.0
2020-10-24T06:50:00Z,44488,9302000,East Chedabucto Bay,0.0,45.445,-60.9538,18,2020-10-24T06:50:00.000Z,110,2020-10-24T06:58:02.675Z,45.44572,100,-60.955119999999994,100,11.0,100,12.2,100,12.6,100,0.0,100,3.6,100,,-1,,-1,,-1,,-1,,-1,,-1,,-1,,-1,1021.3,100,31.0,100,87,100,36.0,100,5.0,100,6,1,-2.1,1,1021.3,1,1021.3,1021.3,31.0,29.2,87,88,36.0,34.9,5.0,4.0
2020-10-24T07:00:00Z,44488,9302000,East Chedabucto Bay,0.0,45.445,-60.9538,18,2020-10-24T07:00:00.000Z,108,2020-10-24T07:08:07.544Z,45.44572,100,-60.955130000000004,100,11.1,100,12.2,100,12.7,100,0.0,100,3.6,100,0.9,100,2.1,100,6.8,100,1.4,100,1.7,100,7.6,100,4.9,100,11.8,100,1021.4,100,31.0,100,92,100,37.4,100,5.0,100,6,1,-1.9,1,1021.4,1,1021.4,1021.4,31.0,29.2,92,93,37.4,37.8,5.0,4.0
2020-10-24T07:10:00Z,44488,9302000,East Chedabucto Bay,0.0,45.445,-60.9538,18,2020-10-24T07:10:00.000Z,110,2020-10-24T07:21:08.027Z,45.44572,100,-60.95515,100,11.1,100,12.2,100,12.7,100,0.0,100,3.6,100,,-1,,-1,,-1,,-1,,-1,,-1,,-1,,-1,1021.2,100,29.5,100,87,100,36.7,100,5.0,100,6,1,-1.9,1,1021.2,1,1021.2,1021.2,29.5,27.7,87,88,36.7,35.3,5.0,4.0
2020-10-24T07:20:00Z,44488,9302000,East Chedabucto Bay,0.0,45.445,-60.9538,18,2020-10-24T07:20:00.000Z,110,2020-10-24T07:28:14.468Z,45.44573,100,-60.955169999999995,100,11.1,100,12.2,100,12.7,100,0.0,100,3.6,100,,-1,,-1,,-1,,-1,,-1,,-1,,-1,,-1,1021.0,100,30.6,100,85,100,37.4,100,5.0,100,7,1,-1.9,1,1021.0,1,1021.0,1021.0,30.6,29.2,85,86,37.4,36.0,5.0,4.0
2020-10-24T07:30:00Z,44488,9302000,East Chedabucto Bay,0.0,45.445,-60.9538,18,2020-10-24T07:30:00.000Z,110,2020-10-24T07:38:10.790Z,45.44573,100,-60.95518000000001,100,11.2,100,12.2,100,12.7,100,0.0,100,3.6,100,,-1,,-1,,-1,,-1,,-1,,-1,,-1,,-1,1021.1,100,30.2,100,90,100,35.3,100,5.0,100,6,1,-1.7,1,1021.1,1,1021.1,1021.1,30.2,28.8,90,91,35.3,34.9,5.0,4.0
2020-10-24T07:40:00Z,44488,9302000,East Chedabucto Bay,0.0,45.445,-60.9538,18,2020-10-24T07:40:00.000Z,110,2020-10-24T07:48:12.405Z,45.44575,100,-60.955169999999995,100,11.2,100,12.2,100,12.6,100,0.0,100,3.6,100,,-1,,-1,,-1,,-1,,-1,,-1,,-1,,-1,1020.8,100,31.0,100,88,100,36.7,100,5.0,100,7,1,-1.8,1,1020.8,1,1020.8,1020.8,31.0,29.5,88,89,36.7,35.6,5.0,4.0
2020-10-24T07:50:00Z,44488,9302000,East Chedabucto Bay,0.0,45.445,-60.9538,18,2020-10-24T07:50:00.000Z,110,2020-10-24T07:58:17.903Z,45.44573,100,-60.95515,100,11.2,100,12.2,100,12.6,100,0.0,100,3.6,100,,-1,,-1,,-1,,-1,,-1,,-1,,-1,,-1,1020.7,100,29.5,100,87,100,35.6,100,5.0,100,8,1,-1.8,1,1020.7,1,1020.7,1020.7,29.5,28.1,87,88,35.6,34.9,5.0,4.0
2020-10-24T08:00:00Z,44488,9302000,East Chedabucto Bay,0.0,45.445,-60.9538,18,2020-10-24T08:00:00.000Z,108,2020-10-24T08:08:14.982Z,45.44573,100,-60.955169999999995,100,11.2,100,12.2,100,12.6,100,0.0,100,3.6,100,0.9,100,2.4,100,6.2,100,1.4,100,1.8,100,6.2,100,4.8,100,4.9,100,1020.6,100,29.2,100,85,100,35.3,100,5.0,100,8,1,-1.8,1,1020.6,1,1020.6,1020.6,29.2,27.7,85,86,35.3,32.4,5.0,4.0
2020-10-24T08:10:00Z,44488,9302000,East Chedabucto Bay,0.0,45.445,-60.9538,18,2020-10-24T08:10:00.000Z,110,2020-10-24T08:21:28.244Z,45.44572,100,-60.95513,100,11.2,100,12.2,100,12.6,100,0.0,100,3.6,100,,-1,,-1,,-1,,-1,,-1,,-1,,-1,,-1,1020.3,100,28.1,100,80,100,32.8,100,5.0,100,8,1,-2.0,1,1020.3,1,1020.3,1020.2,28.1,26.6,80,81,32.8,31.7,5.0,4.0
2020-10-24T08:20:00Z,44488,9302000,East Chedabucto Bay,0.0,45.445,-60.9538,18,2020-10-24T08:20:00.000Z,110,2020-10-24T08:28:26.270Z,45.44573,100,-60.95518000000001,100,11.3,100,12.2,100,12.6,100,0.0,100,3.6,100,,-1,,-1,,-1,,-1,,-1,,-1,,-1,,-1,1020.0,100,28.8,100,79,100,34.2,100,5.0,100,8,1,-2.2,1,1020.0,1,1020.0,1020.0,28.8,27.4,79,80,34.2,33.1,5.0,4.0
2020-10-24T08:30:00Z,44488,9302000,East Chedabucto Bay,0.0,45.445,-60.9538,18,2020-10-24T08:30:00.000Z,110,2020-10-24T08:38:37.856Z,45.44572,100,-60.95515,100,11.3,100,12.2,100,12.7,100,0.0,100,3.6,100,,-1,,-1,,-1,,-1,,-1,,-1,,-1,,-1,1019.9,100,29.2,100,81,100,35.3,100,5.0,100,8,1,-2.2,1,1019.9,1,1019.9,1019.9,29.2,27.7,81,82,35.3,34.6,5.0,4.0
2020-10-24T08:40:00Z,44488,9302000,East Chedabucto Bay,0.0,45.445,-60.9538,18,2020-10-24T08:40:00.000Z,110,2020-10-24T08:48:38.464Z,45.44572,100,-60.95517,100,11.3,100,12.2,100,12.6,100,0.0,100,3.6,100,,-1,,-1,,-1,,-1,,-1,,-1,,-1,,-1,1019.8,100,29.2,100,79,100,35.3,100,5.0,100,8,1,-2.3,1,1019.8,1,1019.8,1019.8,29.2,27.4,79,80,35.3,34.2,5.0,4.0
2020-10-24T08:50:00Z,44488,9302000,East Chedabucto Bay,0.0,45.445,-60.9538,18,2020-10-24T08:50:00.000Z,110,2020-10-24T08:57:42.732Z,45.44572,100,-60.95515,100,11.3,100,12.2,100,12.6,100,0.0,100,3.6,100,,-1,,-1,,-1,,-1,,-1,,-1,,-1,,-1,1019.7,100,27.4,100,78,100,35.3,100,5.0,100,8,1,-2.3,1,1019.7,1,1019.7,1019.7,27.4,26.3,78,79,35.3,35.3,5.0,4.0
2020-10-24T09:00:00Z,44488,9302000,East Chedabucto Bay,0.0,45.445,-60.9538,18,2020-10-24T09:00:00.000Z,108,2020-10-24T09:07:46.431Z,45.4457,100,-60.95515,100,11.3,100,12.2,100,12.6,100,0.0,100,3.6,100,0.9,100,2.3,100,6.8,100,1.4,100,1.7,100,7.7,100,5.0,100,10.5,100,1019.5,100,29.2,100,76,100,34.9,100,5.0,100,8,1,-2.5,1,1019.5,1,1019.5,1019.5,29.2,27.4,76,77,34.9,33.1,5.0,4.0
2020-10-24T09:10:00Z,44488,9302000,East Chedabucto Bay,0.0,45.445,-60.9538,18,2020-10-24T09:10:00.000Z,110,2020-10-24T09:20:44.039Z,45.4457,100,-60.95517,100,11.3,100,12.2,100,12.6,100,0.0,100,3.6,100,,-1,,-1,,-1,,-1,,-1,,-1,,-1,,-1,1019.4,100,31.0,100,78,100,35.3,100,5.0,100,8,1,-2.6,1,1019.4,1,1019.4,1019.4,31.0,29.5,78,79,35.3,34.6,5.0,4.0
2020-10-24T09:20:00Z,44488,9302000,East Chedabucto Bay,0.0,45.445,-60.9538,18,2020-10-24T09:20:00.000Z,110,2020-10-24T09:27:48.110Z,45.4457,100,-60.95515,100,11.4,100,12.2,100,12.6,100,0.0,100,3.6,100,,-1,,-1,,-1,,-1,,-1,,-1,,-1,,-1,1019.3,100,31.3,100,79,100,37.1,100,5.0,100,6,1,-2.4,1,1019.3,1,1019.3,1019.3,31.3,29.9,79,80,37.1,35.6,5.0,4.0
2020-10-24T09:30:00Z,44488,9302000,East Chedabucto Bay,0.0,45.445,-60.9538,18,2020-10-24T09:30:00.000Z,110,2020-10-24T09:37:51.360Z,45.44572,100,-60.95515,100,11.4,100,12.2,100,12.6,100,0.0,100,3.6,100,,-1,,-1,,-1,,-1,,-1,,-1,,-1,,-1,1019.3,100,32.0,100,80,100,38.2,100,5.0,100,8,1,-2.2,1,1019.3,1,1019.3,1019.3,32.0,30.2,80,81,38.2,37.8,5.0,4.0
2020-10-24T09:40:00Z,44488,9302000,East Chedabucto Bay,0.0,45.445,-60.9538,18,2020-10-24T09:40:00.000Z,110,2020-10-24T09:47:51.232Z,45.44572,100,-60.95513,100,11.4,100,12.2,100,12.6,100,0.0,100,3.6,100,,-1,,-1,,-1,,-1,,-1,,-1,,-1,,-1,1019.3,100,31.0,100,83,100,36.4,100,5.0,100,8,1,-2.1,1,1019.3,1,1019.3,1019.3,31.0,29.2,83,84,36.4,34.6,5.0,4.0
2020-10-24T09:50:00Z,44488,9302000,East Chedabucto Bay,0.0,45.445,-60.9538,18,2020-10-24T09:50:00.000Z,110,2020-10-24T09:57:50.035Z,45.44572,100,-60.955119999999994,100,11.5,100,12.2,100,12.6,100,0.0,100,3.6,100,,-1,,-1,,-1,,-1,,-1,,-1,,-1,,-1,1019.1,100,30.6,100,77,100,36.0,100,5.0,100,7,1,-2.2,1,1019.1,1,1019.1,1019.1,30.6,28.8,77,78,36.0,34.6,5.0,4.0
2020-10-24T10:00:00Z,44488,9302000,East Chedabucto Bay,0.0,45.445,-60.9538,18,2020-10-24T10:00:00.000Z,108,2020-10-24T10:07:57.753Z,45.44572,100,-60.95512,100,11.5,100,12.2,100,12.6,100,0.0,100,3.6,100,1.0,100,2.8,100,6.4,100,1.5,100,2.0,100,7.2,100,5.1,100,11.8,100,1018.9,100,28.8,100,79,100,35.3,100,5.0,100,6,1,-2.5,1,1018.9,1,1018.9,1018.9,28.8,27.7,79,80,35.3,34.9,5.0,4.0
2020-10-24T10:10:00Z,44488,9302000,East Chedabucto Bay,0.0,45.445,-60.9538,18,2020-10-24T10:10:00.000Z,110,2020-10-24T10:21:02.584Z,45.44572,100,-60.95513,100,11.6,100,12.2,100,12.6,100,0.0,100,3.6,100,,-1,,-1,,-1,,-1,,-1,,-1,,-1,,-1,1018.7,100,31.0,100,80,100,37.1,100,5.0,100,6,1,-2.5,1,1018.7,1,1018.7,1018.7,31.0,29.5,80,81,37.1,36.0,5.0,4.0